Location: Newark
(49.1000°N, 0.4667°W)
Time: 10:37:58
(UTC+00:00)

BEESAT 3 - Pass Details

Date: 11 July 2020
Orbit: 482 x 522 km, 64.9° (Epoch: 10 August)

Event Time Altitude Azimuth Distance (km) Brightness Sun altitude
Rises 21:49:08 0° 269° (W) 2,649 ? -12.6°
Reaches altitude 10° 21:51:59 10° 290° (WNW) 1,765 ? -12.8°
Maximum altitude 21:54:34 17° 331° (NNW) 1,400 ? -13.0°
Drops below altitude 10° 21:57:10 10° 12° (NNE) 1,769 ? -13.3°
Sets 22:00:01 0° 34° (NE) 2,657 ? -13.5°
